Regional Weather Roundup
Issued by NWS

Home | Current Version | Previous Version | Graphics & Text | Print | Product List | Glossary On
Versions: 1 2 3 4 5 6 7 8 9 10 11 12 13 14 15 16 17 18 19 20 21 22 23 24 25 26 27 28 29 30 31 32 33 34 35 36 37 38 39 40 41 42 43 44 45 46 47 48 49 50
000
ASUS43 KDMX 011407
RWRIA

WEATHER ROUNDUP FOR IOWA
NATIONAL WEATHER SERVICE DES MOINES IA
900 AM CDT MON JUN 01 2015

NOTE: "FAIR" INDICATES FEW OR NO CLOUDS BELOW 12,000 FEET WITH NO
SIGNIFICANT WEATHER AND/OR OBSTRUCTIONS TO VISIBILITY.

* - THESE STATIONS ARE NOT NWS STATIONS...THUS NOT UNDER NWS
QUALITY CONTROL.  THEY ALSO DO NOT REPORT WEATHER SUCH
AS PRECIPITATION OR FOG.

IAZ001>003-012>014-020>022-031>034-043>046-011500-
   NORTHWEST IOWA

CITY           SKY/WX    TMP DP  RH WIND       PRES   REMARKS
CARROLL *      SUNNY     57  50  77 SE10      30.20S
CHEROKEE *     SUNNY     59  50  72 SE8       30.19S
DENISON *      SUNNY     61  55  82 VRB5      30.17S
LE MARS *      MOSUNNY   61  52  72 SE8       30.19R
ORANGE CITY *  SUNNY     57  48  72 S8        30.18S
SHELDON *      MOSUNNY   61  46  59 SE13      30.18S
SIOUX CITY     SUNNY     60  52  74 S12       30.17S
SPENCER        SUNNY     60  48  64 SE10      30.21S
$$

IAZ055>058-069>071-079>083-090>094-011500-
   SOUTHWEST IOWA

CITY           SKY/WX    TMP DP  RH WIND       PRES   REMARKS
ATLANTIC *     SUNNY     61  54  77 SE7       30.19S
AUDUBON *      SUNNY     61  54  77 SE7       30.20F
CLARINDA *     MOSUNNY   61  54  77 SE8       30.20S
COUNCIL BLFS * SUNNY     63  59  88 S10       30.18S
CRESTON *      SUNNY     59  54  82 SE12      30.20S
HARLAN  *      PTSUNNY   63  59  88 SE9       30.22S
LAMONI         MOSUNNY   62  52  69 E6        30.20R
RED OAK *      MOSUNNY   63  55  77 SE8       30.19R
SHENANDOAH *   PTSUNNY   63  55  77 S8        30.19S
$$

IAZ047>049-059>061-072>074-084-011500-
   CENTRAL IOWA

CITY           SKY/WX    TMP DP  RH WIND       PRES   REMARKS
AMES           SUNNY     58  48  69 SE9       30.23S
ANKENY *       SUNNY     59  52  77 VRB6G13   30.23S
CHARITON *     SUNNY     59  52  77 E7        30.22R
DES MOINES     PTSUNNY   60  50  69 E8        30.22S
GRINNELL*      SUNNY     57  46  67 E6        30.24S
KNOXVILLE *    SUNNY     57  46  67 E8        30.22R
MARSHALLTOWN   SUNNY     56  46  69 SE8       30.24S
PELLA *        SUNNY     61  50  67 E8        30.24S
PERRY *          N/A     59  50  72 E7        30.21S
$$

IAZ004>006-015-016-023>025-035-036-011500-
   NORTH CENTRAL IOWA

CITY           SKY/WX    TMP DP  RH WIND       PRES   REMARKS
ALGONA *       MOSUNNY   59  46  63 SE10      30.23R
CLARION *      SUNNY     59  43  55 SE16      30.22F
ESTHERVILLE    CLOUDY    58  46  64 SE14      30.21F
FORT DODGE *   SUNNY     57  48  72 SE8       30.23S
MASON CITY     CLOUDY    57  43  59 SE13      30.25F
FOREST CITY *  SUNNY     54  43  66 SE8       30.24S
IOWA FALLS *     N/A     57  43  58 SE10      30.25S
$$

IAZ007>011-017>019-026>030-037>042-050>054-066-011500-
   NORTHEAST IOWA

CITY           SKY/WX    TMP DP  RH WIND       PRES   REMARKS
CEDAR RAPIDS   SUNNY     56  45  66 E8        30.24S
CHARLES CITY * SUNNY     55  45  67 SE8       30.26F
CLINTON *      MOSUNNY   55  36  47 NE15      30.27S
DECORAH *      SUNNY     54  39  58 E9        30.27S
DUBUQUE        SUNNY     54  44  69 E7        30.27S
MONTICELLO *   SUNNY     55  45  67 VRB7      30.26S
OELWEIN *      SUNNY     55  41  58 E10       30.27S
WATERLOO       SUNNY     56  41  57 E6        30.25S
$$

IAZ064-065-067-068-078-011500-
   EAST CENTRAL IOWA

CITY           SKY/WX    TMP DP  RH WIND       PRES   REMARKS
DAVENPORT      CLOUDY    57  39  51 NE12      30.25R
IOWA CITY      SUNNY     57  44  62 NE7       30.26R
MT. PLEASANT * CLOUDY    57  45  62 NE8       30.23R
MUSCATINE *    CLOUDY    59  43  55 E9        30.24S
QUAD CITIES    CLOUDY    57  40  52 E9        30.24R
$$

IAZ062-063-075>077-085>089-095>099-011500-
   SOUTHEAST IOWA

CITY           SKY/WX    TMP DP  RH WIND       PRES   REMARKS
BURLINGTON     CLOUDY    56  47  71 NE8       30.22R
FAIRFIELD *    SUNNY     57  45  62 NE8       30.23S
FORT MADISON *   N/A     55  50  82 E6        30.22S
KEOKUK *       CLOUDY    55  50  82 NE6       30.21R
OSKALOOSA *      N/A     57  46  67 E7        30.24R
CENTERVILLE *  MOSUNNY   57  57 100 E8        30.23S
OTTUMWA        SUNNY     57  47  69 NE9       30.23R
WASHINGTON *   CLOUDY    59  46  63 NE10      30.25S
$$

ABBREVIATIONS USED IN REMARKS
   TC - TEMPERATURES IN CELSIUS
  WCI - WIND CHILL INDEX
   HX - HEAT INDEX
  VSB - VISIBILITY
$$




USA.gov is the U.S. government's official web portal to all federal, state and local government web resources and services.